Regional Weather Roundup
Issued by NWS

Home | Current Version | Previous Version | Graphics & Text | Print | Product List | Glossary On
Versions: 1 2 3 4 5 6 7 8 9 10 11 12 13 14 15 16 17 18 19 20 21 22 23 24 25 26 27 28 29 30 31 32 33 34 35 36 37 38 39 40 41 42 43 44 45 46 47 48 49 50
000
ASUS43 KLMK 270902
RWRKY
KENTUCKY REGIONAL WEATHER ROUNDUP
NATIONAL WEATHER SERVICE LOUISVILLE KY
400 AM EST TUE JAN 27 2015

NOTE "FAIR" INDICATES FEW OR NO CLOUDS BELOW 12,000 FEET
WITH NO SIGNIFICANT WEATHER AND/OR OBSTRUCTIONS TO VISIBILITY.

KYZ001>023-026-027-061>063-070>075-271000-
WESTERN AND SOUTH CENTRAL KENTUCKY

CITY           SKY/WX    TMP DP  RH WIND       PRES   REMARKS
PADUCAH        CLOUDY    36  31  82 W7        29.92R WCI  30
HENDERSON      CLOUDY    30  28  93 E3        29.91S
OWENSBORO      CLOUDY    31  31 100 E5        29.92S FOG     WCI  26
HOPKINSVILLE   CLOUDY    33  31  90 E2        29.89S
BOWLING GREEN  CLOUDY    32  29  88 CALM      29.90F FOG
GLASGOW        NOT AVBL
$$

KYZ024-025-028>034-038-045-046-053-271000-
NORTH CENTRAL KENTUCKY

CITY           SKY/WX    TMP DP  RH WIND       PRES   REMARKS
LOUISVILLE/SDF LGT SNOW  30  27  88 CALM      29.91F FOG
LOUISVILLE/LOU CLOUDY    29  26  89 CALM      29.92F
FORT KNOX      FLURRIES  28  27  94 N2        29.89F
$$

KYZ035>037-039>044-047>052-055>060-089>105-271000-
NORTHEAST KENTUCKY

CITY           SKY/WX    TMP DP  RH WIND       PRES   REMARKS
LEXINGTON      LGT SNOW  27  25  92 CALM      29.89S FOG
COVINGTON      FLURRIES  23  15  71 E7        29.91S WCI  15
FRANKFORT      LGT SNOW  28  25  88 CALM      29.89S FOG
$$

KYZ054-064>069-076>088-106>120-271000-
SOUTHEAST KENTUCKY

CITY           SKY/WX    TMP DP  RH WIND       PRES   REMARKS
JACKSON        CLOUDY    26  22  84 CALM      29.85F
LONDON         CLOUDY    29  24  82 SW3       29.86F HAZE
SOMERSET       NOT AVBL
MIDDLESBORO    NOT AVBL
MONTICELLO     CLOUDY    30  29  96 CALM      29.91F FOG
$$



USA.gov is the U.S. government's official web portal to all federal, state and local government web resources and services.